Location: Unspecified
(0.0000°N, 0.0000°E)
Time: 05:42:01
(UTC+00:00)

Tiros 1 - All Passes

Search period start: 06 December 2016 00:00
Search period end: 16 December 2016 00:00
Orbit: 631 x 664 km, 48.4° (Epoch: 05 December)

Date Brightness Start Highest point End Pass type
(mag) Time Alt. Az. Time Alt. Az. Time Alt. Az.
06 Dec - 01:18:36 10° NW 01:23:11 64° SW 01:27:50 10° SSE night (unlit)
06 Dec - 11:51:03 10° S 11:54:24 19° SE 11:57:44 10° E daylight
06 Dec - 13:32:08 10° WSW 13:36:28 34° NW 13:40:45 10° NNE daylight
07 Dec - 00:03:16 10° NNW 00:07:23 32° NE 00:11:33 10° ESE night (unlit)
07 Dec - 01:46:06 10° W 01:49:26 19° SW 01:52:47 10° S night (unlit)
07 Dec - 12:15:56 10° SSW 12:20:39 61° SE 12:25:20 10° NE daylight
07 Dec - 14:01:40 10° WNW 14:02:45 11° NW 14:03:50 10° NW daylight
08 Dec - 00:28:58 10° NW 00:33:35 73° SW 00:38:15 10° SSE night (unlit)
08 Dec - 11:01:41 10° S 11:04:47 17° SE 11:07:51 10° E daylight
08 Dec - 12:42:24 10° WSW 12:46:51 39° NW 12:51:15 10° NNE daylight
08 Dec - 23:13:48 10° N 23:17:47 28° NE 23:21:47 10° ESE night (unlit)
09 Dec - 00:56:17 10° W 00:59:49 21° SW 01:03:23 10° S night (unlit)
09 Dec - 11:26:21 10° SSW 11:31:02 54° SE 11:35:41 10° NE daylight
09 Dec - 13:11:13 10° WNW 13:13:07 12° NW 13:15:00 10° NNW daylight
09 Dec - 23:39:21 10° NW 23:43:59 82° SW 23:48:39 10° SE night (unlit)
10 Dec - 10:12:22 10° SSE 10:15:08 15° SE 10:17:53 10° E daylight
10 Dec - 11:52:40 10° WSW 11:57:14 44° NW 12:01:45 10° NNE daylight
10 Dec - 22:24:21 10° N 22:28:10 25° NE 22:32:00 10° ESE night (unlit)
11 Dec - 00:06:29 10° WNW 00:10:11 24° SW 00:13:57 10° S night (unlit)
11 Dec - 10:36:46 10° SSW 10:41:24 48° SE 10:45:59 10° NE daylight
11 Dec - 12:21:03 10° W 12:23:29 14° NW 12:25:53 10° NNW daylight
11 Dec - 22:49:45 10° NW 22:54:22 88° NE 22:59:02 10° SE night (unlit)
12 Dec - 09:23:07 10° SSE 09:25:30 14° SE 09:27:52 10° E daylight
12 Dec - 11:02:58 10° SW 11:07:36 49° NW 11:12:13 10° NNE daylight
12 Dec - 21:34:56 10° N 21:38:33 23° NE 21:42:12 10° ESE night (unlit)
12 Dec - 23:16:42 10° WNW 23:20:34 26° SW 23:24:29 10° S night (unlit)
13 Dec - 09:47:13 10° SSW 09:51:47 42° SE 09:56:18 10° ENE daylight
13 Dec - 11:31:01 10° W 11:33:50 15° NW 11:36:40 10° NNW daylight
13 Dec - 22:00:09 10° NW 22:04:45 79° NE 22:09:24 10° SE night (unlit)
14 Dec - 08:34:00 10° SSE 08:35:51 12° SE 08:37:43 10° ESE daylight
14 Dec - 10:13:16 10° SW 10:17:59 56° NW 10:22:39 10° NNE daylight
14 Dec - 20:45:32 10° N 20:48:56 20° NE 20:52:21 10° E night (unlit)
14 Dec - 22:26:57 10° WNW 22:30:58 29° SW 22:35:01 10° S night (unlit)
15 Dec - 08:57:41 10° SSW 09:02:09 38° SE 09:06:35 10° ENE daylight
15 Dec - 10:41:03 10° W 10:44:13 17° NW 10:47:21 10° N daylight
15 Dec - 21:10:34 10° NNW 21:15:09 69° NE 21:19:46 10° SE night (unlit)
